Regional Weather Roundup
Issued by NWS

Home | Current Version | Previous Version | Text Only | Print | Product List | Glossary On
Versions: 1 2 3 4 5 6 7 8 9 10 11 12 13 14 15 16 17 18 19 20 21 22 23 24 25 26 27 28
000
ASCA42 TJSJ 050910
RWRPR
PUERTO RICO/U.S. VIRGIN ISLANDS HOURLY WEATHER ROUNDUP
NATIONAL WEATHER SERVICE SAN JUAN PR
500 AM AST THU MAY 05 2016

PRZ001-004-051000-
PUERTO RICO

CITY           SKY/WX    TMP DP  RH WIND       PRES   REMARKS
SAN JUAN LMM   PTCLDY    77  73  88 SE5       29.93S
CEIBA          PTCLDY    79  73  83 E12       29.96S
$$

PRZ006-007-051000-
U.S. VIRGIN ISLANDS

CITY           SKY/WX    TMP DP  RH WIND       PRES   REMARKS
CHARLOTTE AMA  PTCLDY    81  73  78 E14       29.94R
$$

HOURLY WEATHER ROUNDUP FOR THE NEWS MEDIA

CITY           SKY/WX    TMP DP  RH WIND       PRES   REMARKS
ORLANDO        CLEAR     63  54  72 NW7       29.75R
NEW YORK       CLOUDY    47  43  86 N12       29.72R
NEWARK         CLOUDY    47  45  93 N12       29.71F
CHICAGO        CLOUDY    43  33  68 N16       29.88S
HARTFORD       CLOUDY    45  42  89 N9G21     29.69R
BOSTON         CLOUDY    44  42  93 NE15G22   29.76S FOG
DALLAS         CLEAR     61  53  75 CALM      30.01S
PHILADELPHIA   CLOUDY    50  44  80 NE7       29.69F
LOS ANGELES    MOCLDY    59  53  80 W5        29.92F
WASHINGTON DC  CLOUDY    50  47  89 E8        29.67F



USA.gov is the U.S. government's official web portal to all federal, state and local government web resources and services.